Regional Weather Roundup
Issued by NWS

Home | Current Version | Previous Version | Text Only | Print | Product List | Glossary Off
Versions: 1 2 3 4 5 6 7 8 9 10 11 12 13 14 15 16 17 18 19 20 21 22 23 24 25 26 27 28 29 30 31 32 33 34 35 36 37 38 39 40 41 42 43 44 45 46 47 48 49 50

000
ASUS43 KIND 222259
RWRIN

WEATHER ROUNDUP FOR INDIANA
NATIONAL WEATHER SERVICE INDIANAPOLIS IN
600 PM EST THU FEB 22 2018

NOTE: "FAIR" INDICATES FEW OR NO CLOUDS BELOW 12,000 FEET WITH NO
SIGNIFICANT WEATHER AND/OR OBSTRUCTIONS TO VISIBILITY.

* - STATION DOES NOT REPORT WEATHER SUCH AS PRECIPITATION OR FOG.

+ - STATION NOT QUALITY CONTROLLED BY THE NATIONAL WEATHER SERVICE.
    USE DATA WITH CAUTION...ESPECIALLY DEWPOINT AND RELATIVE
    HUMIDITY OBSERVATIONS.

INZ001>003-010>013-019-020-230000-
NORTHWEST INDIANA

CITY           SKY/WX    TMP DP  RH WIND       PRES   REMARKS
GARY /AIRPORT/ MOCLDY    41  34  75 E10       30.37S
MICHIGAN CITY+ MOCLDY    41  34  75 E13G18    30.39F
MONTICELLO +   CLOUDY    43  38  83 E9        30.38S
RENSSELAER +   CLOUDY    43  36  75 E16G22    30.35F

$$

LMZ046-743>745-230000-
SOUTHERN LAKE MICHIGAN

STATION/POSITION TIME  TEMP    WIND        PRES    WAVE
                       AIR SEA DIR/SP/G            HT
                 (UTC) (F)     (DEG/KT/KT) (MB)    (FT)
BURNS HARBOR     2240   42     110/ 19/ 23 1028.8F
MICHIGAN CITY    2230   42      80/ 15/ 19   N/A

$$

INZ004-005-014>016-021>024-230000-
NORTH CENTRAL INDIANA

CITY           SKY/WX    TMP DP  RH WIND       PRES   REMARKS
ELKHART        FAIR      41  32  70 E12       30.44S
GOSHEN         CLOUDY    39  33  79 E12       30.45R WCI  32
PERU/GRISSOM   CLOUDY    41  41 100 E15       30.39R
SOUTH BEND     MOCLDY    40  32  73 E12       30.42F WCI  33
WARSAW +       CLOUDY    37  34  87 MISG      30.43R

$$

INZ006>009-017-018-025>027-230000-
NORTHEAST INDIANA

CITY           SKY/WX    TMP DP  RH WIND       PRES   REMARKS
AUBURN +       CLOUDY    36  34  93 E14       30.45S WCI  27
FORT WAYNE     CLOUDY    38  35  89 E18G24    30.44R WCI  28
KENDALLVILLE + CLOUDY    37  33  87 E10       30.44S WCI  30

$$

INZ028-029-035-036-043>045-051>053-230000-
WEST CENTRAL INDIANA

CITY           SKY/WX    TMP DP  RH WIND       PRES   REMARKS
CRAWFORDSVL +  CLOUDY    41  41 100 E14       30.34F
GREENCASTLE +  CLOUDY    43  39  87 E8        30.35S
LAFAYETTE      CLOUDY    45  41  86 E13       30.35F
TERRE HAUTE    CLOUDY    45  41  86 E9        30.33F

$$

INZ030>032-037>040-046>048-054>057-064-065-230000-
CENTRAL INDIANA

CITY           SKY/WX    TMP DP  RH WIND       PRES   REMARKS
COLUMBUS       CLOUDY    45 N/A N/A E6        30.35F
INDIANAPOLIS   DRIZZLE   44  41  89 E13       30.36R
-EAGLE CREEK   CLOUDY    45  39  79 E8        30.36R
KOKOMO +       CLOUDY    41  39  93 E14       30.39R
MT COMFORT *+  CLOUDY    45  43  93 MISG      30.38R
SHELBYVILLE    CLOUDY    46  41  82 E8        30.36R
ZIONSVILLE +   CLOUDY    43  41  91 E6        30.37R

$$

INZ033-034-041-042-049-050-058-059-230000-
EAST CENTRAL INDIANA

CITY           SKY/WX    TMP DP  RH WIND       PRES   REMARKS
MUNCIE         CLOUDY    47  41  80 E10       30.38R
RICHMOND +     CLOUDY    43  43 100 E10       30.36F

$$

INZ060-061-067>069-081>083-085>088-230000-
SOUTHWEST INDIANA

CITY           SKY/WX    TMP DP  RH WIND       PRES   REMARKS
EVANSVILLE     CLOUDY    51  49  92 CALM      30.33R
HUNTINGBURG +  CLOUDY    50  47  89 E7        30.31F

$$

INZ062-063-066-070>080-084-089>092-230000-
SOUTH CENTRAL AND SOUTHEAST INDIANA

CITY           SKY/WX    TMP DP  RH WIND       PRES   REMARKS
BLOOMINGTON    CLOUDY    45  43  93 E10       30.33R
FRENCH LICK *+ CLOUDY    45 N/A N/A E8        30.32S
MADISON *+     CLOUDY    45  43  93 E6        30.37R
SEYMOUR +      CLOUDY    46  45  93 E6        30.36R FOG

$$





USA.gov is the U.S. government's official web portal to all federal, state and local government web resources and services.